Tracking 28790 objects as of 19-Apr-2024
HD Live streaming from Space Station
objects crossing your sky now

COSMOS 2251 DEB

Track COSMOS 2251 DEB now!
10-day predictions


NORAD ID: 33834
Int'l Code: 1993-036CB
Perigee: 572.9 km
Apogee: 635.5 km
Inclination: 74.1 °
Period: 96.6 minutes
Semi major axis: 6975 km
RCS: 0.024 m2 (small)
Launch date: June 16, 1993
Source: Commonwealth of Independent States (former USSR) (CIS)
Launch site: PLESETSK MISSILE AND SPACE COMPLEX (PKMTR)

Note: This is SATELLITE DEBRIS
Your satellite tracking list
Your tracking list is empty




NASA's NSSDC Master Catalog

Two Line Element Set (TLE):
1 33834U 93036CB  24109.84700431  .00028440  00000-0  28652-2 0  9998
2 33834  74.0650 157.8613 0044840   3.4371 111.5085 14.90279990812556
Source of the keplerian elements: AFSPC